Location: Albuquerque Trailhead
(34.7934°N, 106.3736°W)
Time: 22:02:34
(UTC+00:00)

NOAA 19 - Pass Details

Date: 05 April 2023
Orbit: 840 x 859 km, 99.1° (Epoch: 28 May)

Event Time Altitude Azimuth Distance (km) Brightness Sun altitude
Exits shadow 02:18:28 10° 134° (SE) 2,496 7.1 -10.8°
Reaches altitude 10° 02:18:33 10° 133° (SE) 2,462 7.1 -10.8°
Maximum altitude 02:23:27 35° 69° (ENE) 1,333 5.8 -11.8°
Drops below altitude 10° 02:28:21 10° 6° (N) 2,466 7.8 -12.7°
Sets 02:30:53 0° 357° (N) 3,403 8.6 -13.2°
